THORAD DELTA 1 DEB, 8299

Orbit data source: Space-Track

THORAD DELTA 1 DEB, 8299 is space debris in SSO originally from a launch on Fri, 15 Nov 1974 UTC launched from the Air Force Western Test Range (AFWTR). Debris objects in space refer to the collection of defunct objects orbiting the Earth. Examples of debris include non-operational satellites, rocket bodies, and fragments generated from explosions, collisions, or faulty payload assembly.

Loading next visibility...
Identifier
8299, 1974-089BG
Orbit
SSO
Country
Flag of USUS
Related business
Manufacturer
Unknown
Mission
Spacecraft
Bus & Motor
Unknown
Mass
Unknown
Launch date (UTC)
1974-11-15 (51 years ago)
Launch vehicle
Unknown
Launch site
Air Force Western Test Range (AFWTR)
Object type
Payload
Rocket body
Debris
Shape & HBR
Unknown shape, 0.1 m
Radar Cross Section
Small (<0.1 m²)

Expand to show TLE details & history
Last TLE update: 23 hours ago

TLE from 23 hours ago
0 THORAD DELTA 1 DEB
1  8299U 74089BG  26071.40480718  .00001879  00000-0  11822-2 0  9995
2  8299 102.0627 217.4112 0309466 321.0170  36.9027 13.85134924460061
Epoch: 2026-03-12T09:42Z
TLE epoch observation values (Epoch: 2026-03-12T09:42:55.340Z)
Latitude
-0.00001°
Longitude
-98.37455°
Altitude
769.829 km
Speed
7.56 km/s
True Right ascension
14h 29m 38s
True Declination
0° 00' 00"
Sunlit
Object was in full shadow at epoch
Visualization orbit readout
Latitude
Unknown
Longitude
Unknown
Altitude
Unknown
Speed
Unknown
Apparent Right ascension
Unknown
Apparent Declination
Unknown
Sunlit
N/A
Visualization observer readout
Local Sidereal Time
12:45:56
Azimuth
Unknown
Elevation
Unknown
Doppler factor
Unknown
Orbital elements
Apogee altitude
1,169.687 km
Perigee altitude
716.551 km
Semi-major axis
7,321.256 km
Eccentricity
0.03095
Inclination
102.0627°
RAAN
217.4112°
Arg. of periapsis
321.017°
True anomaly
39.0994°
Mean anomaly
36.9027°
Eccentric anomaly
37.99419°
Mean motion
3.46469 °/min
Orbital period
103.91 mins
BSTAR
0.0011822
Loading maneuver chart data...
Computing Atmospheric mass density...

Documentation

Showing up to 5 results
|